Tracking 18852 objects as of 23-Nov-2017
HD Live streaming from Space Station
objects crossing your sky now

FENGYUN 2B

Track FENGYUN 2B now!
FENGYUN 2B is classified as:


NORAD ID: 26382
Int'l Code: 2000-032A
Perigee: 35,820.7 km
Apogee: 35,880.4 km
Inclination: 10.1 °
Period: 1,439.0 minutes
Semi major axis: 42221 km
RCS: 15.8489 m2 (large)
Launch date: June 25, 2000
Source: People's Republic of China (PRC)
Launch site: Xichang Space Center, China (XSC)

Scanning radiometer, a cloud mapper, water vapor scanner to provide timely weather data; provides hoursly full-disk images of Earth in visible and infrared wavelengths.
aabbcc
Your satellite tracking list
Your tracking list is empty




NASA's NSSDC Master Catalog

Two Line Element Set (TLE):
1 26382U 00032A   17326.52203688 -.00000043 +00000-0 +00000-0 0  9997
2 26382 010.1313 038.9497 0007069 238.8292 222.6428 01.00069432063615
Source of the keplerian elements: AFSPC